| time (UTC) | temp F | wind direction | speed MPH | gust MPH | rain 1hr in | rain 24hr in | rain mn in | humidity % | barometer mb |
| 20260505213505 | 60 | 170 | 0.0 | 1.0 | 0.07 | 0.16 | 0.16 | 96 | 1030.7 |
| 20260505212505 | 60 | 91 | 0.0 | 2.0 | 0.07 | 0.16 | 0.16 | 96 | 1030.8 |
| 20260505212005 | 60 | 131 | 0.0 | 1.0 | 0.07 | 0.16 | 0.16 | 96 | 1030.8 |
| 20260505211505 | 60 | 132 | 0.0 | 1.0 | 0.07 | 0.16 | 0.16 | 96 | 1030.8 |
| 20260505210006 | 59 | 151 | 0.0 | 2.0 | 0.06 | 0.14 | 0.14 | 96 | 1031.0 |
| 20260505205505 | 60 | 93 | 0.0 | 1.0 | 0.04 | 0.13 | 0.13 | 96 | 1031.0 |
| 20260505205006 | 59 | 115 | 0.0 | 1.0 | 0.02 | 0.11 | 0.11 | 96 | 1030.9 |
| 20260505204505 | 59 | 115 | 0.0 | 1.0 | 0.01 | 0.09 | 0.09 | 96 | 1030.9 |
| 20260505204006 | 59 | 115 | 0.0 | 1.0 | 0.00 | 0.09 | 0.09 | 96 | 1030.9 |
| 20260505203506 | 59 | 115 | 0.0 | 2.0 | 0.00 | 0.09 | 0.09 | 96 | 1030.9 |
| 20260505203006 | 59 | 140 | 1.0 | 2.0 | 0.00 | 0.09 | 0.09 | 96 | 1030.8 |
| 20260505202505 | 59 | 203 | 0.0 | 2.0 | 0.00 | 0.09 | 0.09 | 96 | 1030.8 |
| 20260505202006 | 59 | 142 | 1.0 | 2.0 | 0.00 | 0.09 | 0.09 | 96 | 1030.7 |
| 20260505201505 | 59 | 185 | 1.0 | 2.0 | 0.00 | 0.09 | 0.09 | 96 | 1030.7 |
| 20260505201005 | 59 | 136 | 1.0 | 2.0 | 0.00 | 0.09 | 0.09 | 96 | 1030.7 |
| 20260505200006 | 58 | 140 | 1.0 | 2.0 | 0.00 | 0.09 | 0.09 | 96 | 1030.6 |
| 20260505195006 | 58 | 143 | 1.0 | 2.0 | 0.01 | 0.09 | 0.09 | 96 | 1030.4 |
| 20260505194505 | 58 | 125 | 1.0 | 2.0 | 0.02 | 0.09 | 0.09 | 96 | 1030.3 |
| 20260505194005 | 58 | 147 | 1.0 | 2.0 | 0.03 | 0.09 | 0.09 | 96 | 1030.2 |
| 20260505193506 | 58 | 133 | 1.0 | 2.0 | 0.03 | 0.09 | 0.09 | 96 | 1030.2 |
| 20260505193005 | 58 | 134 | 0.0 | 1.0 | 0.03 | 0.09 | 0.09 | 96 | 1030.2 |
| 20260505192505 | 58 | 144 | 0.0 | 1.0 | 0.03 | 0.09 | 0.09 | 96 | 1030.2 |
| 20260505192005 | 58 | 140 | 0.0 | 1.0 | 0.03 | 0.09 | 0.09 | 96 | 1030.2 |
| 20260505191005 | 58 | 160 | 1.0 | 2.0 | 0.04 | 0.09 | 0.09 | 96 | 1030.2 |
| 20260505190006 | 58 | 159 | 1.0 | 2.0 | 0.04 | 0.09 | 0.09 | 96 | 1030.2 |
| 20260505185505 | 58 | 144 | 1.0 | 2.0 | 0.04 | 0.09 | 0.09 | 96 | 1030.2 |
| 20260505185005 | 58 | 128 | 1.0 | 2.0 | 0.03 | 0.08 | 0.08 | 96 | 1030.2 |
| 20260505183506 | 57 | 161 | 0.0 | 1.0 | 0.01 | 0.06 | 0.06 | 96 | 1030.2 |
| 20260505183005 | 58 | 146 | 0.0 | 2.0 | 0.01 | 0.06 | 0.06 | 96 | 1030.1 |
| 20260505182005 | 57 | 150 | 1.0 | 2.0 | 0.01 | 0.06 | 0.06 | 96 | 1030.2 |
| 20260505181506 | 57 | 144 | 1.0 | 2.0 | 0.00 | 0.05 | 0.05 | 96 | 1030.2 |
| 20260505181005 | 57 | 140 | 1.0 | 2.0 | 0.00 | 0.05 | 0.05 | 96 | 1030.2 |
| 20260505180006 | 57 | 147 | 1.0 | 2.0 | 0.00 | 0.05 | 0.05 | 96 | 1030.2 |
| 20260505175505 | 57 | 146 | 1.0 | 2.0 | 0.00 | 0.05 | 0.05 | 95 | 1030.2 |
| 20260505175005 | 57 | 143 | 0.0 | 2.0 | 0.00 | 0.05 | 0.05 | 95 | 1030.2 |
| 20260505174505 | 57 | 143 | 1.0 | 2.0 | 0.00 | 0.05 | 0.05 | 95 | 1030.2 |
| 20260505174005 | 57 | 140 | 1.0 | 2.0 | 0.00 | 0.05 | 0.05 | 95 | 1030.2 |
| 20260505173505 | 57 | 140 | 0.0 | 2.0 | 0.00 | 0.05 | 0.05 | 95 | 1030.2 |
| 20260505173005 | 57 | 140 | 0.0 | 2.0 | 0.00 | 0.05 | 0.05 | 95 | 1030.2 |
| 20260505172505 | 57 | 149 | 2.0 | 2.0 | 0.00 | 0.05 | 0.05 | 95 | 1030.2 |
| 20260505171505 | 57 | 141 | 1.0 | 2.0 | 0.00 | 0.05 | 0.05 | 95 | 1030.2 |
| 20260505171005 | 57 | 141 | 0.0 | 2.0 | 0.00 | 0.05 | 0.05 | 95 | 1030.1 |
| 20260505170005 | 57 | 141 | 1.0 | 2.0 | 0.01 | 0.05 | 0.05 | 95 | 1030.1 |
| 20260505165505 | 57 | 141 | 1.0 | 1.0 | 0.01 | 0.05 | 0.05 | 95 | 1030.1 |
| 20260505165005 | 57 | 141 | 1.0 | 2.0 | 0.01 | 0.05 | 0.05 | 95 | 1030.1 |
| 20260505164505 | 57 | 141 | 0.0 | 2.0 | 0.01 | 0.05 | 0.05 | 95 | 1030.1 |
| 20260505164005 | 57 | 141 | 1.0 | 2.0 | 0.01 | 0.05 | 0.05 | 95 | 1030.1 |
| 20260505163006 | 57 | 141 | 1.0 | 2.0 | 0.01 | 0.05 | 0.05 | 95 | 1030.1 |
| 20260505162505 | 57 | 141 | 1.0 | 3.0 | 0.01 | 0.05 | 0.05 | 95 | 1030.1 |
| 20260505162006 | 57 | 175 | 1.0 | 3.0 | 0.01 | 0.05 | 0.05 | 95 | 1030.1 |
| 20260505161505 | 57 | 144 | 1.0 | 3.0 | 0.01 | 0.05 | 0.05 | 95 | 1030.1 |
| 20260505161006 | 57 | 157 | 1.0 | 2.0 | 0.01 | 0.05 | 0.05 | 95 | 1030.1 |
| 20260505153005 | 57 | 136 | 0.0 | 2.0 | 0.04 | 0.04 | 0.04 | 95 | 1030.1 |
| 20260505152505 | 57 | 140 | 1.0 | 2.0 | 0.04 | 0.04 | 0.04 | 95 | 1030.2 |
| 20260505152005 | 57 | 128 | 0.0 | 3.0 | 0.04 | 0.04 | 0.04 | 95 | 1030.2 |
| 20260505151505 | 57 | 132 | 1.0 | 3.0 | 0.04 | 0.04 | 0.04 | 95 | 1030.2 |
| 20260505151005 | 57 | 229 | 1.0 | 3.0 | 0.04 | 0.04 | 0.04 | 95 | 1030.3 |
| 20260505125005 | 56 | 131 | 0.0 | 2.0 | 0.00 | 0.00 | 0.00 | 92 | 1031.7 |
| 20260505124504 | 56 | 131 | 0.0 | 2.0 | 0.00 | 0.00 | 0.00 | 92 | 1031.7 |
| 20260505124005 | 56 | 131 | 1.0 | 2.0 | 0.00 | 0.00 | 0.00 | 92 | 1031.7 |
| 20260505123005 | 56 | 129 | 0.0 | 2.0 | 0.00 | 0.00 | 0.00 | 92 | 1031.7 |
| 20260505122504 | 56 | 128 | 1.0 | 2.0 | 0.00 | 0.00 | 0.00 | 91 | 1031.7 |
| 20260505122005 | 56 | 147 | 1.0 | 2.0 | 0.00 | 0.00 | 0.00 | 91 | 1031.7 |
| 20260505121505 | 56 | 153 | 0.0 | 2.0 | 0.00 | 0.00 | 0.00 | 91 | 1031.7 |
| 20260505120006 | 56 | 143 | 0.0 | 2.0 | 0.00 | 0.00 | 0.00 | 91 | 1031.7 |
| 20260505115505 | 56 | 143 | 1.0 | 2.0 | 0.00 | 0.00 | 0.00 | 91 | 1031.7 |
| 20260505115005 | 56 | 135 | 1.0 | 3.0 | 0.00 | 0.00 | 0.00 | 91 | 1031.7 |
| 20260505114505 | 56 | 152 | 1.0 | 3.0 | 0.00 | 0.00 | 0.00 | 91 | 1031.8 |
| 20260505114004 | 56 | 146 | 1.0 | 3.0 | 0.00 | 0.00 | 0.00 | 91 | 1031.8 |
| 20260505113505 | 56 | 143 | 2.0 | 3.0 | 0.00 | 0.00 | 0.00 | 91 | 1031.8 |
| 20260505113005 | 56 | 148 | 2.0 | 3.0 | 0.00 | 0.00 | 0.00 | 91 | 1031.9 |
| 20260505112504 | 56 | 152 | 1.0 | 3.0 | 0.00 | 0.00 | 0.00 | 91 | 1032.0 |
| 20260505112005 | 56 | 137 | 1.0 | 3.0 | 0.00 | 0.00 | 0.00 | 91 | 1032.0 |
| 20260505102004 | 54 | 147 | 1.0 | 3.0 | 0.00 | 0.00 | 0.00 | 92 | 1032.3 |
| 20260505101504 | 54 | 146 | 1.0 | 2.0 | 0.00 | 0.00 | 0.00 | 92 | 1032.4 |
| 20260505101005 | 54 | 133 | 0.0 | 2.0 | 0.00 | 0.00 | 0.00 | 92 | 1032.4 |
| 20260505100005 | 53 | 153 | 1.0 | 2.0 | 0.00 | 0.00 | 0.00 | 91 | 1032.5 |
| 20260505095505 | 53 | 148 | 1.0 | 2.0 | 0.00 | 0.00 | 0.00 | 91 | 1032.5 |
| 20260505095005 | 54 | 149 | 1.0 | 2.0 | 0.00 | 0.00 | 0.00 | 91 | 1032.4 |
| 20260505094504 | 54 | 152 | 1.0 | 2.0 | 0.00 | 0.00 | 0.00 | 90 | 1032.5 |
| 20260505094004 | 54 | 148 | 1.0 | 2.0 | 0.00 | 0.00 | 0.00 | 90 | 1032.5 |
| 20260505093504 | 54 | 151 | 1.0 | 2.0 | 0.00 | 0.00 | 0.00 | 90 | 1032.5 |
| 20260505093005 | 55 | 147 | 1.0 | 2.0 | 0.00 | 0.00 | 0.00 | 90 | 1032.4 |
| 20260505092505 | 55 | 146 | 1.0 | 2.0 | 0.00 | 0.00 | 0.00 | 90 | 1032.4 |
| 20260505092005 | 55 | 151 | 1.0 | 2.0 | 0.00 | 0.00 | 0.00 | 90 | 1032.4 |
| 20260505091505 | 55 | 132 | 1.0 | 1.0 | 0.00 | 0.00 | 0.00 | 90 | 1032.4 |
| 20260505090005 | 55 | 148 | 1.0 | 2.0 | 0.00 | 0.00 | 0.00 | 90 | 1032.3 |
| 20260505085505 | 55 | 156 | 1.0 | 2.0 | 0.00 | 0.00 | 0.00 | 90 | 1032.3 |
| 20260505085005 | 55 | 143 | 1.0 | 2.0 | 0.00 | 0.00 | 0.00 | 90 | 1032.3 |
| 20260505084005 | 56 | 143 | 1.0 | 2.0 | 0.00 | 0.00 | 0.00 | 90 | 1032.3 |
| 20260505083006 | 56 | 154 | 1.0 | 2.0 | 0.00 | 0.00 | 0.00 | 90 | 1032.4 |
| 20260505082506 | 56 | 154 | 1.0 | 2.0 | 0.00 | 0.00 | 0.00 | 89 | 1032.3 |
| 20260505082007 | 56 | 152 | 1.0 | 2.0 | 0.00 | 0.00 | 0.00 | 89 | 1032.3 |
| 20260505081506 | 56 | 154 | 1.0 | 1.0 | 0.00 | 0.00 | 0.00 | 89 | 1032.3 |
| 20260505081006 | 56 | 154 | 0.0 | 1.0 | 0.00 | 0.00 | 0.00 | 88 | 1032.3 |
| 20260505080006 | 57 | 154 | 0.0 | 1.0 | 0.00 | 0.00 | 0.00 | 88 | 1032.3 |
| 20260505075506 | 57 | 154 | 0.0 | 1.0 | 0.00 | 0.00 | 0.00 | 88 | 1032.3 |
| 20260505075006 | 57 | 154 | 0.0 | 1.0 | 0.00 | 0.00 | 0.00 | 88 | 1032.3 |
| 20260505074506 | 57 | 154 | 0.0 | 2.0 | 0.00 | 0.00 | 0.00 | 87 | 1032.3 |
| 20260505074006 | 57 | 154 | 1.0 | 2.0 | 0.00 | 0.00 | 0.00 | 88 | 1032.3 |
| 20260505073506 | 58 | 140 | 1.0 | 2.0 | 0.00 | 0.00 | 0.00 | 87 | 1032.3 |
| 20260505073006 | 58 | 151 | 1.0 | 1.0 | 0.00 | 0.00 | 0.00 | 87 | 1032.3 |
| 20260505072507 | 58 | 144 | 0.0 | 1.0 | 0.00 | 0.00 | 0.00 | 86 | 1032.3 |
| 20260505071505 | 58 | 144 | 0.0 | 1.0 | 0.00 | 0.00 | 0.00 | 85 | 1032.2 |
| 20260505071006 | 58 | 144 | 0.0 | 2.0 | 0.00 | 0.00 | 0.00 | 85 | 1032.1 |
| 20260505070006 | 58 | 157 | 1.0 | 2.0 | 0.00 | 0.00 | 0.00 | 85 | 1032.1 |
| 20260505065506 | 58 | 157 | 1.0 | 2.0 | 0.00 | 0.00 | 0.00 | 84 | 1032.1 |
| 20260505065006 | 58 | 157 | 1.0 | 2.0 | 0.00 | 0.00 | 0.00 | 84 | 1032.2 |
| 20260505064505 | 58 | 153 | 1.0 | 3.0 | 0.00 | 0.00 | 0.00 | 84 | 1032.1 |
| 20260505064006 | 58 | 158 | 2.0 | 3.0 | 0.00 | 0.00 | 0.00 | 84 | 1032.2 |
| 20260505063505 | 58 | 149 | 2.0 | 3.0 | 0.00 | 0.00 | 0.00 | 84 | 1032.2 |
| 20260505063006 | 58 | 145 | 2.0 | 3.0 | 0.00 | 0.00 | 0.00 | 84 | 1032.2 |
| 20260505062506 | 58 | 140 | 1.0 | 2.0 | 0.00 | 0.00 | 0.00 | 83 | 1032.2 |
| 20260505062006 | 59 | 140 | 1.0 | 2.0 | 0.00 | 0.00 | 0.00 | 83 | 1032.2 |
| 20260505061505 | 59 | 140 | 1.0 | 2.0 | 0.00 | 0.00 | 0.00 | 83 | 1032.2 |
| 20260505061006 | 59 | 140 | 1.0 | 2.0 | 0.00 | 0.00 | 0.00 | 82 | 1032.2 |
| 20260505060006 | 60 | 76 | 0.0 | 0.0 | 0.00 | 0.00 | 0.00 | 80 | 1032.2 |
| 20260505055506 | 60 | 76 | 0.0 | 0.0 | 0.00 | 0.00 | 0.00 | 80 | 1032.1 |
| 20260505055006 | 60 | 76 | 0.0 | 0.0 | 0.00 | 0.00 | 0.00 | 80 | 1032.0 |
| 20260505054005 | 61 | 76 | 0.0 | 1.0 | 0.00 | 0.00 | 0.00 | 79 | 1031.9 |
| 20260505053506 | 61 | 76 | 0.0 | 1.0 | 0.00 | 0.00 | 0.00 | 78 | 1031.8 |
| 20260505053006 | 62 | 76 | 0.0 | 1.0 | 0.00 | 0.00 | 0.00 | 78 | 1031.8 |
| 20260505052505 | 62 | 76 | 0.0 | 1.0 | 0.00 | 0.00 | 0.00 | 76 | 1031.8 |
| 20260505052006 | 62 | 76 | 0.0 | 1.0 | 0.00 | 0.00 | 0.00 | 76 | 1031.8 |
| 20260505051506 | 62 | 76 | 0.0 | 1.0 | 0.00 | 0.00 | 0.00 | 76 | 1031.8 |
| 20260505051006 | 63 | 76 | 0.0 | 1.0 | 0.00 | 0.00 | 0.00 | 76 | 1031.8 |
| 20260505041506 | 66 | 29 | 0.0 | 1.0 | 0.00 | 0.00 | 0.00 | 69 | 1031.8 |
| 20260505041006 | 66 | 29 | 0.0 | 2.0 | 0.00 | 0.00 | 0.00 | 69 | 1031.8 |
| 20260505040006 | 66 | 49 | 0.0 | 3.0 | 0.00 | 0.00 | 0.00 | 68 | 1031.8 |
| 20260505035507 | 66 | 31 | 0.0 | 2.0 | 0.00 | 0.00 | 0.00 | 69 | 1031.8 |
| 20260505035006 | 66 | 23 | 0.0 | 2.0 | 0.00 | 0.00 | 0.00 | 69 | 1031.8 |
| 20260505034506 | 66 | 28 | 0.0 | 2.0 | 0.00 | 0.00 | 0.00 | 69 | 1031.8 |
| 20260505033506 | 66 | 48 | 1.0 | 3.0 | 0.00 | 0.00 | 0.00 | 69 | 1031.9 |
| 20260505033006 | 66 | 48 | 1.0 | 3.0 | 0.00 | 0.00 | 0.00 | 70 | 1031.9 |
| 20260505032506 | 66 | 50 | 1.0 | 3.0 | 0.00 | 0.00 | 0.00 | 69 | 1031.8 |
| 20260505031505 | 66 | 75 | 0.0 | 3.0 | 0.00 | 0.00 | 0.00 | 69 | 1031.9 |
| 20260505031006 | 66 | 20 | 1.0 | 3.0 | 0.00 | 0.00 | 0.00 | 68 | 1031.8 |
| 20260505030006 | 66 | 16 | 1.0 | 3.0 | 0.00 | 0.00 | 0.00 | 68 | 1031.8 |
| 20260505025505 | 66 | 31 | 1.0 | 5.0 | 0.00 | 0.00 | 0.00 | 68 | 1031.8 |
| 20260505025006 | 66 | 40 | 1.0 | 5.0 | 0.00 | 0.00 | 0.00 | 68 | 1031.7 |
| 20260505024505 | 67 | 18 | 1.0 | 3.0 | 0.00 | 0.00 | 0.00 | 67 | 1031.7 |
| 20260505024006 | 67 | 33 | 1.0 | 3.0 | 0.00 | 0.00 | 0.00 | 68 | 1031.7 |
| 20260505023506 | 67 | 39 | 1.0 | 5.0 | 0.00 | 0.00 | 0.00 | 67 | 1031.7 |
| 20260505023006 | 67 | 113 | 2.0 | 5.0 | 0.00 | 0.00 | 0.00 | 65 | 1031.7 |
| 20260505022506 | 67 | 5 | 1.0 | 3.0 | 0.00 | 0.00 | 0.00 | 66 | 1031.7 |
| 20260505022005 | 67 | 36 | 2.0 | 5.0 | 0.00 | 0.00 | 0.00 | 67 | 1031.8 |
| 20260505021506 | 67 | 46 | 2.0 | 5.0 | 0.00 | 0.00 | 0.00 | 67 | 1031.8 |
| 20260505021006 | 67 | 71 | 2.0 | 3.0 | 0.00 | 0.00 | 0.00 | 67 | 1031.8 |
| 20260505020005 | 68 | 44 | 1.0 | 5.0 | 0.00 | 0.00 | 0.00 | 67 | 1032.0 |
| 20260505015505 | 68 | 13 | 2.0 | 5.0 | 0.00 | 0.00 | 0.00 | 66 | 1032.1 |
| 20260505015005 | 68 | 35 | 1.0 | 7.0 | 0.00 | 0.00 | 0.00 | 67 | 1032.1 |
| 20260505014505 | 68 | 46 | 3.0 | 7.0 | 0.00 | 0.00 | 0.00 | 67 | 1032.2 |
| 20260505014005 | 68 | 36 | 2.0 | 3.0 | 0.00 | 0.00 | 0.00 | 65 | 1032.2 |
| 20260505013505 | 68 | 100 | 2.0 | 3.0 | 0.00 | 0.00 | 0.00 | 64 | 1032.2 |
| 20260505012005 | 67 | 2 | 1.0 | 3.0 | 0.00 | 0.00 | 0.00 | 64 | 1032.3 |
| 20260505011506 | 67 | 144 | 1.0 | 3.0 | 0.00 | 0.00 | 0.00 | 64 | 1032.3 |
| 20260505011005 | 68 | 92 | 1.0 | 3.0 | 0.00 | 0.00 | 0.00 | 65 | 1032.3 |
| 20260505010005 | 67 | 104 | 2.0 | 3.0 | 0.00 | 0.00 | 0.00 | 66 | 1032.6 |
| 20260505005506 | 67 | 121 | 1.0 | 3.0 | 0.00 | 0.00 | 0.00 | 64 | 1032.7 |
| 20260505005006 | 67 | 113 | 2.0 | 3.0 | 0.00 | 0.00 | 0.00 | 65 | 1032.8 |
| 20260505004505 | 67 | 189 | 2.0 | 3.0 | 0.00 | 0.00 | 0.00 | 64 | 1032.8 |
| 20260505004005 | 67 | 69 | 1.0 | 3.0 | 0.00 | 0.00 | 0.00 | 67 | 1032.8 |
| 20260505003506 | 68 | 93 | 1.0 | 3.0 | 0.00 | 0.00 | 0.00 | 66 | 1032.9 |
| 20260505003005 | 67 | 187 | 1.0 | 3.0 | 0.00 | 0.00 | 0.00 | 65 | 1033.1 |
| 20260505002005 | 68 | 312 | 1.0 | 2.0 | 0.00 | 0.00 | 0.00 | 65 | 1033.3 |
| 20260505001505 | 68 | 84 | 0.0 | 1.0 | 0.00 | 0.00 | 0.00 | 67 | 1033.3 |
| 20260505001006 | 67 | 87 | 1.0 | 2.0 | 0.00 | 0.00 | 0.00 | 66 | 1033.3 |
| 20260504235505 | 66 | 17 | 2.0 | 3.0 | 0.00 | 0.00 | 0.00 | 65 | 1033.4 |
| 20260504235006 | 66 | 295 | 1.0 | 3.0 | 0.00 | 0.00 | 0.00 | 64 | 1033.6 |
| 20260504234506 | 66 | 150 | 1.0 | 3.0 | 0.00 | 0.00 | 0.00 | 63 | 1033.7 |
| 20260504234005 | 66 | 147 | 1.0 | 3.0 | 0.00 | 0.00 | 0.00 | 66 | 1033.7 |
| 20260504233505 | 66 | 124 | 1.0 | 3.0 | 0.00 | 0.00 | 0.00 | 65 | 1033.8 |
| 20260504233005 | 66 | 313 | 1.0 | 3.0 | 0.00 | 0.00 | 0.00 | 66 | 1033.8 |
| 20260504232506 | 66 | 253 | 1.0 | 3.0 | 0.00 | 0.00 | 0.00 | 66 | 1033.8 |
| 20260504232006 | 66 | 306 | 1.0 | 3.0 | 0.00 | 0.00 | 0.00 | 67 | 1033.9 |
| 20260504231006 | 66 | 20 | 1.0 | 3.0 | 0.00 | 0.00 | 0.00 | 68 | 1034.0 |
| 20260504230005 | 65 | 89 | 1.0 | 3.0 | 0.00 | 0.00 | 0.00 | 68 | 1034.0 |
| 20260504225505 | 65 | 78 | 0.0 | 3.0 | 0.00 | 0.00 | 0.00 | 71 | 1034.1 |
| 20260504225006 | 64 | 35 | 1.0 | 2.0 | 0.00 | 0.00 | 0.00 | 71 | 1034.1 |
| 20260504223506 | 64 | 123 | 1.0 | 3.0 | 0.00 | 0.00 | 0.00 | 72 | 1034.0 |
| 20260504223005 | 64 | 151 | 1.0 | 3.0 | 0.00 | 0.00 | 0.00 | 73 | 1033.9 |
| 20260504222505 | 63 | 152 | 1.0 | 3.0 | 0.00 | 0.00 | 0.00 | 72 | 1033.9 |
| 20260504222005 | 63 | 146 | 1.0 | 3.0 | 0.00 | 0.00 | 0.00 | 74 | 1033.9 |
| 20260504221505 | 62 | 209 | 2.0 | 3.0 | 0.00 | 0.00 | 0.00 | 74 | 1033.9 |
| 20260504220006 | 62 | 138 | 0.0 | 2.0 | 0.00 | 0.00 | 0.00 | 77 | 1033.9 |
| 20260504215005 | 61 | 160 | 1.0 | 5.0 | 0.00 | 0.00 | 0.00 | 75 | 1033.9 |
| 20260504214506 | 61 | 202 | 2.0 | 5.0 | 0.00 | 0.00 | 0.00 | 76 | 1033.9 |
| 20260504214006 | 61 | 184 | 1.0 | 3.0 | 0.00 | 0.00 | 0.00 | 76 | 1033.9 |